CZ-3B DEB, 40193

Orbit data source: Space-Track

CZ-3B DEB, 40193 is space debris in HEO originally from a launch on Mon, 19 Dec 2011 UTC launched from the Xichang Space Center, China (XSC). Debris objects in space refer to the collection of defunct objects orbiting the Earth. Examples of debris include non-operational satellites, rocket bodies, and fragments generated from explosions, collisions, or faulty payload assembly.

Loading next visibility...
Identifier
40193, 2011-077S
Orbit
HEO
Country
Flag of CNCN / PRC
Related business
Manufacturer
CALT
Mission
Spacecraft
Bus & Motor
Unknown
Mass
Unknown
Launch date (UTC)
2011-12-19 (14 years ago)
Launch vehicle
Unknown
Launch site
Xichang Space Center, China (XSC)
Object type
Payload
Rocket body
Debris
Shape & HBR
Unknown shape, 0.2 m
Radar Cross Section
Medium (>0.1 m² and <1 m²)

Expand to show TLE details & history
Last TLE update: 2 days ago

TLE from 2 days ago
0 CZ-3B DEB
1 40193U 11077S   25291.96216492  .00000172  00000-0  17907-1 0  9996
2 40193  26.1339  93.0688 7382182 232.7346  35.2476  1.86776955 71655
Epoch: 2025-10-18T23:05Z
TLE epoch observation values (Epoch: 2025-10-18T23:05:31.049Z)
Latitude
-0.00026°
Longitude
78.90321°
Altitude
16,506.036 km
Speed
4.53 km/s
True Right ascension
06h 11m 52s
True Declination
0° 00' 01"
Sunlit
Object was in daylight at epoch
Visualization orbit readout
Latitude
Unknown
Longitude
Unknown
Altitude
Unknown
Speed
Unknown
Apparent Right ascension
Unknown
Apparent Declination
Unknown
Sunlit
N/A
Visualization observer readout
Local Sidereal Time
03:33:38
Azimuth
Unknown
Elevation
Unknown
Doppler factor
Unknown
Orbital elements
Apogee altitude
42,040.716 km
Perigee altitude
913.913 km
Semi-major axis
27,855.451 km
Eccentricity
0.73822
Inclination
26.1339°
RAAN
93.0688°
Arg. of periapsis
232.7346°
True anomaly
127.45779°
Mean anomaly
35.2476°
Eccentric anomaly
76.34968°
Mean motion
0.46685 °/min
Orbital period
771.12 mins
BSTAR
0.017907
Loading maneuver chart data...
Computing Atmospheric mass density...
Loading historical data...
Loading historical data...
Loading historical data...
Loading historical data...
Loading historical data...
Loading historical data...
Loading historical data...

Documentation

Showing up to 5 results
|